Location: Zagreb
(45.8000°N, 16.0000°E)
Time: 14:48:12
(UTC+02:00)

Vanguard 1 - Pass Details

Date: 12 August 2022
Orbit: 649 x 3832 km, 34.2° (Epoch: 25 September)

Event Time Altitude Azimuth Distance (km) Brightness Sun altitude
Rises 04:02:18 0° 217° (SW) 5,396 - -16.7°
Reaches altitude 10° 04:05:37 10° 209° (SSW) 4,773 - -16.3°
Exits shadow 04:07:19 15° 204° (SSW) 4,504 12.9 -16.1°
Maximum altitude 04:18:54 40° 146° (SE) 4,044 13.1 -14.6°
Drops below altitude 10° 04:38:25 10° 87° (E) 6,911 15.3 -12.0°
Sets 04:44:28 0° 82° (E) 7,974 15.9 -11.1°
